SWA3608 KOKC-KAUS

Flight info

Callsign SWA3608
Flight time 0h 58m
Altitude 37000
Route MUDDE3 MOOSE BROBB WINDU SEWZY6
Aircraft B738/M-SADE2E3GIJ4RWZ/LB1D1

Departure

Time 2026-04-21 00:50
Airport OKC Will Rogers World Airport (KOKC)

Arrival

Time 2026-04-21 01:48
Airport Austin Bergstrom International Airport (KAUS)
Time Latitude Longitude Altitude Speed Heading
2026-04-21 00:35 35.39451 -97.59658 1296 ft 0 kts 15°
2026-04-21 00:44 35.39428 -97.59668 1296 ft 4 kts 26°
2026-04-21 00:44 35.39406 -97.59686 1296 ft 4 kts 52°
2026-04-21 00:45 35.39399 -97.59722 1296 ft 0 kts 104°
2026-04-21 00:47 35.39388 -97.59656 1296 ft 18 kts 97°
2026-04-21 00:47 35.39384 -97.59423 1297 ft 34 kts 90°
2026-04-21 00:48 35.39457 -97.59131 1294 ft 40 kts 58°
2026-04-21 00:48 35.39707 -97.59063 1294 ft 41 kts 359°
2026-04-21 00:48 35.40019 -97.59066 1291 ft 48 kts
2026-04-21 00:48 35.40371 -97.59064 1289 ft 53 kts
2026-04-21 00:49 35.40496 -97.58912 1293 ft 19 kts 123°
2026-04-21 00:49 35.40455 -97.58895 1294 ft 5 kts 181°
2026-04-21 00:49 35.40187 -97.58896 1292 ft 74 kts 179°
2026-04-21 00:49 35.39451 -97.58895 1291 ft 135 kts 180°
2026-04-21 00:50 35.38390 -97.58888 1517 ft 168 kts 179°
2026-04-21 00:50 35.37243 -97.58811 2504 ft 157 kts 178°
2026-04-21 00:50 35.36167 -97.58724 3332 ft 159 kts 178°
2026-04-21 00:50 35.34964 -97.58628 3565 ft 186 kts 178°
2026-04-21 00:51 35.33588 -97.58519 3770 ft 210 kts 178°
2026-04-21 00:51 35.32040 -97.58395 4052 ft 233 kts 177°
2026-04-21 00:51 35.30381 -97.58261 4607 ft 243 kts 178°
2026-04-21 00:51 35.28678 -97.58123 5286 ft 248 kts 179°
2026-04-21 00:52 35.26917 -97.57981 5798 ft 259 kts 179°
2026-04-21 00:52 35.25100 -97.57834 6441 ft 265 kts 179°
2026-04-21 00:52 35.23230 -97.57685 7052 ft 273 kts 179°
2026-04-21 00:52 35.21342 -97.57534 7855 ft 272 kts 179°
2026-04-21 00:53 35.19441 -97.57383 8579 ft 276 kts 179°
2026-04-21 00:53 35.17498 -97.57230 9254 ft 282 kts 178°
2026-04-21 00:53 35.15523 -97.57008 10008 ft 287 kts 174°
2026-04-21 00:53 35.13523 -97.56615 10518 ft 301 kts 171°
2026-04-21 00:54 35.11381 -97.56074 10668 ft 326 kts 169°
2026-04-21 00:54 35.09088 -97.55446 10819 ft 349 kts 169°
2026-04-21 00:54 35.06668 -97.54780 11206 ft 362 kts 169°
2026-04-21 00:54 35.04194 -97.54112 11817 ft 367 kts 168°
2026-04-21 00:55 35.01684 -97.53449 12476 ft 371 kts 169°
2026-04-21 00:55 35.00008 -97.53013 12922 ft 373 kts 169°
2026-04-21 00:55 34.97458 -97.52361 13662 ft 376 kts 169°
2026-04-21 00:55 34.94878 -97.51710 14295 ft 381 kts 169°
2026-04-21 00:56 34.92262 -97.51056 14898 ft 386 kts 169°
2026-04-21 00:56 34.89618 -97.50398 15569 ft 390 kts 169°
2026-04-21 00:56 34.86951 -97.49736 16258 ft 393 kts 170°
2026-04-21 00:56 34.84253 -97.49068 16874 ft 398 kts 170°
2026-04-21 00:57 34.81525 -97.48394 17507 ft 402 kts 170°
2026-04-21 00:57 34.78769 -97.47714 18123 ft 406 kts 170°
2026-04-21 00:57 34.75984 -97.47027 18688 ft 411 kts 170°
2026-04-21 00:57 34.73175 -97.46333 19262 ft 413 kts 171°
2026-04-21 00:58 34.70352 -97.45637 19816 ft 416 kts 171°
2026-04-21 00:58 34.67502 -97.44935 20337 ft 420 kts 171°
2026-04-21 00:58 34.64628 -97.44227 20861 ft 423 kts 171°
2026-04-21 00:58 34.61730 -97.43515 21385 ft 427 kts 171°
2026-04-21 00:59 34.58809 -97.42797 21887 ft 430 kts 171°
2026-04-21 00:59 34.55864 -97.42073 22369 ft 434 kts 171°
2026-04-21 00:59 34.52893 -97.41344 22844 ft 437 kts 172°
2026-04-21 00:59 34.49900 -97.40610 23304 ft 441 kts 172°
2026-04-21 01:00 34.46885 -97.39872 23798 ft 443 kts 172°
2026-04-21 01:00 34.43854 -97.39129 24192 ft 446 kts 172°
2026-04-21 01:00 34.40802 -97.38382 24606 ft 448 kts 172°
2026-04-21 01:00 34.37782 -97.37643 25037 ft 449 kts 172°
2026-04-21 01:01 34.34672 -97.36882 25475 ft 451 kts 172°
2026-04-21 01:01 34.31590 -97.36129 25884 ft 453 kts 172°
2026-04-21 01:01 34.28495 -97.35374 26279 ft 455 kts 172°
2026-04-21 01:01 34.25384 -97.34615 26661 ft 457 kts 172°
2026-04-21 01:02 34.22263 -97.33855 27069 ft 458 kts 172°
2026-04-21 01:02 34.19138 -97.33094 27476 ft 459 kts 173°
2026-04-21 01:02 34.15997 -97.32330 27818 ft 462 kts 173°
2026-04-21 01:02 34.12838 -97.31562 28138 ft 464 kts 173°
2026-04-21 01:03 34.09706 -97.30801 28471 ft 466 kts 173°
2026-04-21 01:03 34.06521 -97.30028 28823 ft 468 kts 173°
2026-04-21 01:03 34.03321 -97.29252 29170 ft 470 kts 173°
2026-04-21 01:03 34.00109 -97.28473 29495 ft 472 kts 173°
2026-04-21 01:04 33.96890 -97.27693 29923 ft 471 kts 173°
2026-04-21 01:04 33.93696 -97.26917 30475 ft 467 kts 174°
2026-04-21 01:04 33.90525 -97.26147 30969 ft 463 kts 174°
2026-04-21 01:04 33.87372 -97.25383 31389 ft 461 kts 174°
2026-04-21 01:05 33.84227 -97.24623 31759 ft 460 kts 174°
2026-04-21 01:05 33.81091 -97.23867 32143 ft 459 kts 174°
2026-04-21 01:05 33.77966 -97.23115 32576 ft 457 kts 174°
2026-04-21 01:05 33.74862 -97.22367 33059 ft 454 kts 174°
2026-04-21 01:06 33.71780 -97.21624 33484 ft 451 kts 174°
2026-04-21 01:06 33.68712 -97.20886 33953 ft 447 kts 174°
2026-04-21 01:06 33.65672 -97.20155 34377 ft 445 kts 174°
2026-04-21 01:06 33.62640 -97.19427 34646 ft 445 kts 175°
2026-04-21 01:07 33.59597 -97.18699 34792 ft 448 kts 175°
2026-04-21 01:07 33.56529 -97.17967 34954 ft 450 kts 175°
2026-04-21 01:07 33.53460 -97.17233 35241 ft 449 kts 175°
2026-04-21 01:07 33.50401 -97.16499 35555 ft 448 kts 175°
2026-04-21 01:08 33.47346 -97.15767 35758 ft 449 kts 175°
2026-04-21 01:08 33.44273 -97.15033 35935 ft 451 kts 175°
2026-04-21 01:08 33.41201 -97.14299 36198 ft 450 kts 175°
2026-04-21 01:08 33.38135 -97.13566 36482 ft 449 kts 175°
2026-04-21 01:09 33.35070 -97.12834 36670 ft 450 kts 175°
2026-04-21 01:09 33.31988 -97.12100 36813 ft 453 kts 175°
2026-04-21 01:09 33.28892 -97.11363 37024 ft 453 kts 175°
2026-04-21 01:09 33.25802 -97.10626 37289 ft 452 kts 175°
2026-04-21 01:10 33.19612 -97.09156 37269 ft 457 kts 175°
2026-04-21 01:10 33.13410 -97.07678 37257 ft 451 kts 175°
2026-04-21 01:11 33.07255 -97.06216 37251 ft 450 kts 175°
2026-04-21 01:11 33.01121 -97.04764 37234 ft 449 kts 175°
2026-04-21 01:12 32.94992 -97.03316 37197 ft 449 kts 175°
2026-04-21 01:12 32.88871 -97.01870 37220 ft 449 kts 175°
2026-04-21 01:13 32.82745 -97.00426 37234 ft 449 kts 175°
2026-04-21 01:13 32.76603 -96.98980 37277 ft 450 kts 175°
2026-04-21 01:14 32.70444 -96.97531 37275 ft 452 kts 175°
2026-04-21 01:14 32.64271 -96.96081 37254 ft 452 kts 175°
2026-04-21 01:15 32.58081 -96.94629 37242 ft 454 kts 175°
2026-04-21 01:15 32.51880 -96.93176 37249 ft 455 kts 175°
2026-04-21 01:16 32.45663 -96.91721 37252 ft 456 kts 175°
2026-04-21 01:16 32.39430 -96.90362 37236 ft 453 kts 179°
2026-04-21 01:17 32.33306 -96.90678 37280 ft 432 kts 200°
2026-04-21 01:17 32.27518 -96.92525 37257 ft 434 kts 199°
2026-04-21 01:18 32.24553 -96.93266 37126 ft 438 kts 196°
2026-04-21 01:18 32.21525 -96.93883 36505 ft 443 kts 194°
2026-04-21 01:18 32.18505 -96.94447 35986 ft 439 kts 194°
2026-04-21 01:18 32.15479 -96.95022 35254 ft 440 kts 194°
2026-04-21 01:19 32.12463 -96.95620 34631 ft 440 kts 194°
2026-04-21 01:19 32.09449 -96.96242 33908 ft 440 kts 194°
2026-04-21 01:19 32.06469 -96.96872 33153 ft 441 kts 194°
2026-04-21 01:19 32.03414 -96.97527 32392 ft 441 kts 194°
2026-04-21 01:20 32.00430 -96.98171 31659 ft 442 kts 194°
2026-04-21 01:20 31.97403 -96.98824 30898 ft 443 kts 194°
2026-04-21 01:20 31.94370 -96.99477 30344 ft 440 kts 194°
2026-04-21 01:20 31.91376 -97.00119 29691 ft 437 kts 194°
2026-04-21 01:21 31.88400 -97.00756 29162 ft 431 kts 194°
2026-04-21 01:21 31.85465 -97.01384 28552 ft 427 kts 194°
2026-04-21 01:21 31.82563 -97.02005 28071 ft 421 kts 194°
2026-04-21 01:21 31.79695 -97.02618 27479 ft 418 kts 194°
2026-04-21 01:22 31.76843 -97.03229 26960 ft 414 kts 194°
2026-04-21 01:22 31.74023 -97.03833 26434 ft 411 kts 194°
2026-04-21 01:22 31.71220 -97.04433 25896 ft 408 kts 194°
2026-04-21 01:22 31.68439 -97.05027 25379 ft 405 kts 194°
2026-04-21 01:23 31.65675 -97.05618 24857 ft 403 kts 194°
2026-04-21 01:23 31.62919 -97.06206 24320 ft 402 kts 193°
2026-04-21 01:23 31.60177 -97.06792 23780 ft 400 kts 193°
2026-04-21 01:23 31.57444 -97.07374 23174 ft 398 kts 193°
2026-04-21 01:24 31.54732 -97.07951 22650 ft 394 kts 193°
2026-04-21 01:24 31.52055 -97.08559 22106 ft 390 kts 196°
2026-04-21 01:24 31.49437 -97.09350 21566 ft 386 kts 199°
2026-04-21 01:24 31.46890 -97.10297 21061 ft 383 kts 202°
2026-04-21 01:25 31.44396 -97.11354 20567 ft 379 kts 204°
2026-04-21 01:25 31.41939 -97.12450 20077 ft 377 kts 204°
2026-04-21 01:25 31.39487 -97.13514 19589 ft 375 kts 203°
2026-04-21 01:25 31.37032 -97.14530 19100 ft 374 kts 202°
2026-04-21 01:26 31.34606 -97.15498 18598 ft 373 kts 201°
2026-04-21 01:26 31.32114 -97.16470 18028 ft 372 kts 201°
2026-04-21 01:26 31.29695 -97.17406 17544 ft 369 kts 201°
2026-04-21 01:26 31.27270 -97.18342 17464 ft 354 kts 201°
2026-04-21 01:27 31.24984 -97.19225 17051 ft 351 kts 201°
2026-04-21 01:27 31.22679 -97.20122 16779 ft 345 kts 201°
2026-04-21 01:27 31.20406 -97.21008 16433 ft 345 kts 201°
2026-04-21 01:27 31.18139 -97.21894 16201 ft 342 kts 201°
2026-04-21 01:28 31.15882 -97.22774 15896 ft 342 kts 201°
2026-04-21 01:28 31.13618 -97.23657 15642 ft 344 kts 201°
2026-04-21 01:28 31.11341 -97.24545 15360 ft 346 kts 201°
2026-04-21 01:28 31.09064 -97.25431 15087 ft 343 kts 201°
2026-04-21 01:29 31.06806 -97.26309 14815 ft 342 kts 201°
2026-04-21 01:29 31.04554 -97.27184 14542 ft 340 kts 201°
2026-04-21 01:29 31.02317 -97.28053 14272 ft 338 kts 201°
2026-04-21 01:29 31.00085 -97.28920 13992 ft 338 kts 201°
2026-04-21 01:30 30.97862 -97.29784 13684 ft 334 kts 201°
2026-04-21 01:30 30.95684 -97.30627 13378 ft 324 kts 201°
2026-04-21 01:30 30.93592 -97.31436 13144 ft 310 kts 201°
2026-04-21 01:30 30.91584 -97.32215 12751 ft 302 kts 201°
2026-04-21 01:31 30.89595 -97.32995 12229 ft 299 kts 201°
2026-04-21 01:31 30.87638 -97.33764 11723 ft 297 kts 201°
2026-04-21 01:31 30.85682 -97.34532 11210 ft 295 kts 200°
2026-04-21 01:31 30.83745 -97.35290 10699 ft 294 kts 200°
2026-04-21 01:32 30.81810 -97.36046 10184 ft 292 kts 200°
2026-04-21 01:32 30.79935 -97.36870 9903 ft 281 kts 205°
2026-04-21 01:32 30.78187 -97.37821 9586 ft 275 kts 208°
2026-04-21 01:32 30.76510 -97.38842 9396 ft 270 kts 209°
2026-04-21 01:33 30.74844 -97.39861 9155 ft 272 kts 208°
2026-04-21 01:33 30.73156 -97.40869 8938 ft 274 kts 207°
2026-04-21 01:33 30.71456 -97.41860 8705 ft 273 kts 207°
2026-04-21 01:33 30.69756 -97.42835 8478 ft 271 kts 206°
2026-04-21 01:34 30.68066 -97.43799 8251 ft 270 kts 206°
2026-04-21 01:34 30.66383 -97.44756 8041 ft 268 kts 205°
2026-04-21 01:34 30.64691 -97.45626 7956 ft 263 kts 201°
2026-04-21 01:34 30.62973 -97.46400 7880 ft 267 kts 200°
2026-04-21 01:35 30.61220 -97.47157 7772 ft 270 kts 200°
2026-04-21 01:35 30.59462 -97.47919 7705 ft 269 kts 200°
2026-04-21 01:35 30.57699 -97.48690 7571 ft 273 kts 200°
2026-04-21 01:35 30.55922 -97.49474 7487 ft 273 kts 200°
2026-04-21 01:36 30.54146 -97.50263 7352 ft 274 kts 200°
2026-04-21 01:36 30.52373 -97.51053 7231 ft 270 kts 200°
2026-04-21 01:36 30.50643 -97.51826 7157 ft 264 kts 200°
2026-04-21 01:36 30.48932 -97.52591 7052 ft 263 kts 200°
2026-04-21 01:37 30.47231 -97.53352 6977 ft 261 kts 200°
2026-04-21 01:37 30.45538 -97.54110 6892 ft 261 kts 200°
2026-04-21 01:37 30.43848 -97.54866 6795 ft 260 kts 199°
2026-04-21 01:37 30.42164 -97.55618 6704 ft 259 kts 199°
2026-04-21 01:38 30.40482 -97.56370 6612 ft 258 kts 199°
2026-04-21 01:38 30.38769 -97.56959 6461 ft 258 kts 184°
2026-04-21 01:38 30.36997 -97.56910 6486 ft 253 kts 175°
2026-04-21 01:38 30.35204 -97.56804 6313 ft 261 kts 179°
2026-04-21 01:39 30.33411 -97.56822 6262 ft 253 kts 180°
2026-04-21 01:39 30.31678 -97.56859 6148 ft 245 kts 180°
2026-04-21 01:39 30.30009 -97.56881 6071 ft 235 kts 179°
2026-04-21 01:39 30.28396 -97.56893 5997 ft 229 kts 179°
2026-04-21 01:40 30.26811 -97.56877 5816 ft 227 kts 178°
2026-04-21 01:40 30.25239 -97.56837 5650 ft 225 kts 177°
2026-04-21 01:40 30.23684 -97.56794 5474 ft 223 kts 177°
2026-04-21 01:40 30.22129 -97.56751 5333 ft 224 kts 177°
2026-04-21 01:41 30.20569 -97.56710 5139 ft 224 kts 176°
2026-04-21 01:41 30.19015 -97.56666 4982 ft 221 kts 175°
2026-04-21 01:41 30.17489 -97.56566 4781 ft 220 kts 173°
2026-04-21 01:41 30.15955 -97.56420 4509 ft 222 kts 172°
2026-04-21 01:42 30.14422 -97.56255 4264 ft 222 kts 172°
2026-04-21 01:42 30.12884 -97.56078 4026 ft 223 kts 171°
2026-04-21 01:42 30.11863 -97.55953 3848 ft 223 kts 171°
2026-04-21 01:42 30.10294 -97.55754 3617 ft 224 kts 170°
2026-04-21 01:43 30.08762 -97.55555 3374 ft 225 kts 170°
2026-04-21 01:43 30.07203 -97.55352 3127 ft 226 kts 170°
2026-04-21 01:43 30.05623 -97.55328 2798 ft 233 kts 187°
2026-04-21 01:43 30.04203 -97.56189 2629 ft 232 kts 220°
2026-04-21 01:44 30.03428 -97.57787 2520 ft 230 kts 255°
2026-04-21 01:44 30.03500 -97.59599 2521 ft 226 kts 281°
2026-04-21 01:44 30.03889 -97.61346 2519 ft 226 kts 283°
2026-04-21 01:44 30.04403 -97.63072 2486 ft 231 kts 299°
2026-04-21 01:45 30.05457 -97.64442 2528 ft 229 kts 319°
2026-04-21 01:45 30.06546 -97.65814 2487 ft 236 kts 298°
2026-04-21 01:45 30.07124 -97.67565 2531 ft 234 kts 286°
2026-04-21 01:45 30.07871 -97.69246 2386 ft 241 kts 316°
2026-04-21 01:46 30.09293 -97.70081 2220 ft 224 kts
2026-04-21 01:46 30.10712 -97.69695 1952 ft 203 kts 44°
2026-04-21 01:46 30.11597 -97.68538 1748 ft 189 kts 56°
2026-04-21 01:46 30.12695 -97.67707 1506 ft 195 kts 11°
2026-04-21 01:47 30.13995 -97.67886 1351 ft 183 kts 352°
2026-04-21 01:47 30.15218 -97.67847 1089 ft 169 kts 18°
2026-04-21 01:47 30.16341 -97.67634 852 ft 162 kts 355°
2026-04-21 01:47 30.17438 -97.67799 683 ft 157 kts 356°
2026-04-21 01:48 30.18492 -97.67863 549 ft 142 kts 359°
2026-04-21 01:48 30.19369 -97.67885 528 ft 108 kts 359°
2026-04-21 01:48 30.19868 -97.67812 525 ft 29 kts 52°
2026-04-21 01:48 30.19879 -97.67783 525 ft 0 kts 70°
2026-04-21 01:49 30.19880 -97.67782 525 ft 2 kts 70°
2026-04-21 01:49 30.19886 -97.67704 526 ft 17 kts 89°
2026-04-21 01:50 30.19890 -97.67512 526 ft 28 kts 88°
2026-04-21 01:50 30.19895 -97.67281 526 ft 29 kts 88°
2026-04-21 01:50 30.19899 -97.67062 526 ft 25 kts 88°
2026-04-21 01:50 30.20024 -97.66967 526 ft 23 kts 38°
2026-04-21 01:51 30.20108 -97.66868 526 ft 9 kts 11°
2026-04-21 01:51 30.20166 -97.66855 526 ft 2 kts 11°
2026-04-21 01:51 30.20167 -97.66854 526 ft 0 kts 11°